Vorticity
nan nan nan nan nan nan nan nan nan nan nan nan nan nan nan nan nan nan nan nan nan nan nan nan nan nan nan nan nan nan nan nan nan nan nan nan nan nan nan nan nan nan nan nan nan nan nan nan nan
nan 7 6 4 9 6 7 8 -0 5 5 4 4 3 2 7 12 13 13 9 12 5 4 9 5 4 5 6 9 10 9 7 6 5 5 5 4 5 5 4 3 4 5 5 5 5 5 6 nan
nan 4 5 16 1 10 2 4 6 3 2 5 1 7 10 6 5 8 9 10 8 6 5 10 8 5 5 5 7 9 9 7 6 7 6 5 4 5 5 4 4 4 5 6 7 7 6 6 nan
nan 8 6 7 4 9 11 2 5 3 5 3 4 11 6 5 9 14 10 6 7 6 12 5 6 5 5 5 7 8 9 9 7 6 5 5 5 4 5 4 5 7 5 7 7 7 7 6 nan
nan 3 7 7 15 2 3 3 7 3 6 7 6 7 9 10 12 12 6 6 5 6 8 8 6 6 6 5 6 8 8 8 8 6 5 5 5 4 4 5 5 6 7 7 7 7 6 6 nan
nan -0 12 18 4 9 6 2 5 11 3 9 11 2 7 10 9 7 7 6 5 6 3 6 4 6 6 6 6 6 6 6 6 6 5 5 4 5 5 5 5 6 6 7 6 7 7 7 nan
nan 8 14 5 7 6 6 10 7 3 9 7 11 7 8 9 6 7 8 7 7 6 7 6 5 6 5 7 6 6 6 5 5 6 6 6 6 5 3 5 6 6 7 7 7 8 8 7 nan
nan 11 10 10 1 -1 14 7 5 4 7 2 10 13 14 12 6 7 7 6 6 6 3 5 9 7 6 7 8 6 6 7 6 5 6 6 5 7 6 5 10 6 9 7 8 7 8 7 nan
nan 8 4 5 4 -2 1 12 7 8 5 5 6 12 21 11 4 5 5 6 5 7 4 7 9 7 5 5 9 7 7 6 6 5 7 1 8 9 7 4 7 8 8 8 8 7 6 4 nan
nan -2 3 9 9 5 1 1 9 12 2 6 8 11 11 7 4 5 4 7 5 7 5 7 9 6 6 8 7 7 5 4 5 6 4 4 6 3 9 12 5 8 8 8 9 8 6 4 nan
nan -2 7 4 2 1 4 13 4 5 10 20 13 4 5 4 4 5 7 8 10 6 3 8 7 9 6 9 6 5 7 6 6 7 4 8 3 7 7 9 9 9 9 8 7 6 9 7 nan
nan 5 -3 -0 2 8 3 5 11 4 8 15 23 15 7 5 5 6 7 7 9 7 8 6 8 10 7 7 7 8 6 6 7 8 3 6 8 7 7 8 5 8 10 7 6 7 10 12 nan
nan 2 5 5 1 6 10 5 8 11 11 12 12 10 7 6 6 7 7 6 8 7 8 8 7 6 8 4 8 11 7 9 6 5 5 4 6 8 7 6 6 9 8 8 9 9 5 7 nan
nan 6 -3 5 8 6 8 6 7 15 12 13 7 8 7 7 6 6 7 6 5 6 7 7 7 6 6 7 5 4 7 8 11 7 8 6 5 6 7 7 6 6 8 7 8 10 7 8 nan
nan 10 7 9 9 3 10 14 13 21 14 10 7 7 8 7 7 6 7 6 6 6 7 6 7 7 6 7 7 8 9 6 6 10 10 8 5 3 6 6 7 7 7 9 10 7 6 8 nan
nan 6 11 16 10 9 7 21 16 1 8 8 8 8 8 8 6 6 6 6 7 6 7 6 7 8 6 7 6 7 8 8 8 7 10 10 6 6 6 6 6 8 6 9 9 10 7 8 nan
nan 14 14 3 4 7 6 -5 13 8 8 7 7 9 8 7 6 7 5 6 6 7 7 6 7 7 7 6 6 9 7 5 8 7 12 10 11 6 6 7 8 6 5 8 7 7 7 9 nan
nan 8 2 6 8 4 7 16 2 8 4 8 9 8 9 8 6 6 6 7 7 7 6 6 7 8 6 6 6 6 8 8 9 11 8 9 9 9 7 6 8 10 6 5 8 6 10 9 nan
nan 7 9 11 4 8 6 8 9 12 7 6 10 7 8 11 10 9 7 6 6 8 7 7 7 7 5 6 9 7 7 5 6 13 12 10 8 9 7 8 7 8 8 8 6 7 9 8 nan
nan 7 8 3 8 6 6 4 12 10 5 10 10 6 10 7 10 10 10 8 8 7 7 7 8 5 5 6 7 7 8 9 10 10 11 11 10 9 9 7 9 5 10 9 8 7 8 8 nan
nan 8 9 10 6 3 13 12 11 2 15 8 7 13 9 11 13 8 8 9 9 9 9 9 9 9 7 7 7 8 8 10 10 8 13 14 10 10 10 8 7 8 9 10 8 8 7 6 nan
nan 13 3 9 4 10 6 13 25 8 5 6 7 10 9 12 9 15 10 11 9 9 10 14 10 10 10 8 8 10 9 9 9 9 9 12 13 11 9 9 8 8 8 11 9 7 7 7 nan
nan 10 11 12 8 7 5 8 9 16 6 13 13 10 10 12 17 16 11 10 9 11 11 8 11 10 8 8 9 8 5 9 11 11 10 11 14 13 10 10 9 7 8 8 8 8 7 7 nan
nan 7 9 11 12 13 17 4 2 13 16 11 14 11 13 11 15 9 8 9 10 9 9 7 8 7 7 10 13 9 8 9 10 11 13 13 11 12 14 12 9 8 10 9 8 8 7 7 nan
nan 4 6 10 12 12 11 9 12 12 12 10 12 9 10 7 11 7 8 5 8 6 8 9 10 7 8 10 10 8 12 11 14 16 16 12 10 11 13 11 8 9 10 9 11 9 11 9 nan
nan -1 3 -1 4 14 5 7 10 14 13 8 8 11 10 7 8 4 8 10 8 8 7 8 8 11 12 6 3 8 13 12 14 17 16 10 10 12 13 12 12 11 9 8 9 9 12 9 nan
nan 10 1 3 6 13 8 8 8 3 8 10 11 10 8 10 8 7 7 10 7 7 6 9 7 9 11 8 8 9 8 10 11 13 14 16 13 14 15 14 14 13 11 10 7 9 8 8 nan
nan 11 8 7 7 12 6 5 19 4 8 8 9 10 10 12 8 8 7 7 8 8 9 7 8 8 6 9 8 10 9 10 9 11 13 13 14 13 14 14 13 13 13 12 7 7 9 8 nan
nan 5 7 9 7 8 15 15 6 16 21 10 9 10 10 12 5 9 7 5 6 8 9 11 8 8 7 7 10 11 10 6 6 9 9 10 12 10 11 12 13 12 9 11 13 10 8 8 nan
nan nan nan nan nan nan nan nan nan nan nan nan nan nan nan nan nan nan nan nan nan nan nan nan nan nan nan nan nan nan nan nan nan nan nan nan nan nan nan nan nan nan nan nan nan nan nan nan nan
CAPE
1184 1483 1183 1049 1334 468 29 66 98 70 125 191 94 17 291 90 12 321 727 1320 1703 1771 2336 2893 3389 3483 3444 3717 4072 3911 3437 3311 3064 2881 2690 2192 2058 1974 1749 1789 2083 1616 1758 1558 1413 1223 1324 1289 1178
1731 1225 1004 1088 542 115 139 124 85 102 211 212 70 257 126 514 533 964 1579 1813 1905 2016 2442 2363 3514 3655 3625 3709 3830 3713 3345 3129 2950 3065 2555 2462 2237 1991 1695 1851 2043 1534 1553 1458 1569 1350 1204 1196 1249
2108 1775 1544 554 335 367 173 136 166 250 138 216 291 360 542 684 759 1144 1875 1951 1913 1795 1798 2931 3615 3801 3373 3474 3449 3582 3618 3467 3155 3055 2892 2629 2352 2054 1694 1553 1344 1584 1502 1441 1291 1521 1353 1231 1392
2176 1702 1476 140 221 246 334 170 258 313 290 268 326 869 1262 915 658 1402 1758 1772 1827 1796 1811 3139 3835 3538 3551 3353 3563 3328 3792 3833 3688 3376 2743 2478 1964 2103 1612 1505 1709 1753 1565 1535 1517 1175 1353 1174 1316
1018 940 654 367 272 217 196 247 295 377 352 422 394 951 1780 1799 1498 1708 2059 1819 1791 1714 3144 3006 3910 4053 4025 3447 3420 3848 3931 4100 3873 3533 2918 2581 2361 2078 1959 1646 1738 1829 1347 1520 1562 1496 1399 1309 1290
639 358 185 369 211 258 200 244 278 370 501 587 628 991 2247 2096 2000 1940 2345 2128 1707 1906 3174 3342 3604 3996 4056 3570 3266 3553 3687 3541 3436 3160 2935 2622 2253 2164 2255 2151 1754 1678 1467 1710 1548 1378 1307 1272 1436
528 418 318 293 277 315 123 47 317 429 406 646 444 826 2266 2153 2378 2346 2465 2342 2099 1975 3206 3616 3060 3181 3522 3525 3508 3529 3302 3205 3210 2960 2716 2564 2380 2232 2359 2180 1656 1599 1749 1754 1636 1518 1369 1351 1258
335 493 148 274 461 277 118 168 185 331 736 814 587 559 2296 2499 2395 2458 2977 3085 2851 2479 3216 3625 3427 2975 2945 3096 3707 3279 3463 3512 3169 2905 2526 2482 2221 2177 2051 2232 2006 2004 1792 1671 1602 1687 1490 1477 1324
210 525 319 264 221 304 232 152 126 296 651 880 1015 1354 1873 2440 2402 2146 2822 3139 3136 3369 3116 3235 3481 3300 3357 3063 3280 3235 3176 3003 2806 2448 2644 2551 1894 1969 1832 1986 1848 1845 1695 2019 1678 1732 1560 1614 1243
277 309 238 445 399 343 229 152 117 299 472 1143 1935 2017 2341 2428 2407 2305 2621 3068 3121 2617 2732 3125 2981 2808 2748 2865 3014 2693 2632 2376 2096 1582 2157 1915 2021 2009 1580 1907 1701 1786 1796 1830 2022 1776 1623 1654 1004
136 350 443 365 323 213 164 163 187 239 349 432 2179 2450 2334 2338 2263 1887 1976 2205 2740 3018 2997 3335 2911 3026 3011 2363 2538 2420 2564 2235 1858 1924 1677 1240 952 858 1526 1875 1686 1407 1898 1929 1541 1889 1408 1136 1728
152 215 390 458 349 224 205 160 101 198 279 499 1458 2410 2299 2283 2181 1746 1906 2026 1918 2153 2054 2149 2414 2825 2887 2756 2165 1901 2018 2437 2983 733 559 386 360 1488 1966 1920 1984 1969 2510 2574 2362 2081 1802 1494 1418
93 267 482 451 320 281 134 105 200 204 402 702 1762 2078 2182 2294 2053 1653 1786 1778 1714 2148 2228 2459 2707 2872 2696 2549 1770 1931 2259 2243 1935 1250 307 504 1298 1680 1308 1911 1976 2016 2451 2639 2963 1570 2625 1900 1878
350 286 449 271 243 247 224 175 209 803 623 1008 1820 2075 2001 2148 1837 1549 1829 2105 2010 2346 2393 2439 2775 2986 2872 2647 2441 1892 1455 1897 1655 1621 846 975 1235 1826 1298 1220 1372 1935 2487 3008 2453 2929 2571 2364 1453
375 566 310 304 262 137 203 51 10 953 949 1446 1777 2035 1811 2064 1718 1656 2025 2124 2212 2443 2407 2669 3090 3001 2917 2783 2422 2037 1487 1780 1635 1359 1652 1389 1817 1804 1995 778 1182 1172 3065 2702 2124 2445 2082 1627 1424
266 288 270 217 251 163 203 300 1050 1138 1227 1643 1690 1926 1723 2067 1771 1675 1876 2094 2171 2357 2468 2572 2467 2875 2833 2455 1972 1417 1001 1088 891 1608 1150 1842 1793 1902 1882 843 534 1456 2158 2808 2484 2482 1546 1995 2060
327 217 348 397 170 129 116 235 941 1195 1232 1552 1691 1789 1643 1965 2111 1949 1980 2098 2160 2413 2657 2723 2442 2470 2560 2303 1746 1483 1219 1106 853 906 1239 1733 1632 1382 1634 621 761 1207 1387 2396 2294 1980 2444 2125 2244
474 561 372 318 276 119 114 287 492 1043 1179 1196 1594 1828 1827 1935 2171 2258 2293 2257 2344 2500 2888 2835 2589 2472 2358 1978 2100 2758 1420 1126 841 611 1171 1328 1194 1223 1846 1052 1643 1251 872 2344 2141 1656 1551 1417 1928
221 328 527 239 209 128 89 375 405 654 816 884 1379 1774 1895 1918 2085 2276 2576 2540 2473 2754 2872 2798 2486 2492 2405 2802 2670 2047 1864 1367 1038 876 691 1197 954 1190 1884 1316 1422 2375 1156 2148 2323 1740 1776 1769 2309
153 286 384 237 186 135 47 118 207 657 515 504 1122 1371 1663 1841 1989 2348 2802 2961 2886 3029 2822 2748 2528 2671 2831 2441 2272 1812 2014 1439 1964 1494 1084 788 829 1226 1286 1434 1283 1867 2000 1742 2128 1905 2052 1833 2239
23 110 152 96 142 91 10 112 120 76 324 578 950 1116 1310 1389 1781 2220 2860 3130 3156 3072 3077 3005 3102 2701 2379 1862 1948 1888 1541 1714 1269 1363 1692 906 769 1169 1120 1071 1781 1672 2225 1051 2266 1726 1627 1922 1898
0 0 0 0 150 173 110 234 264 288 225 435 945 1093 1130 1005 1281 1923 2835 2894 3131 3083 3004 3319 3262 2811 2276 1984 1901 1258 1015 770 838 808 1095 1736 922 993 992 1235 1402 1895 2159 1329 1047 1803 1645 1898 1763
0 0 0 0 5 6 15 95 181 287 143 72 408 820 943 1140 1517 2186 2762 2939 2796 2607 2734 3037 3025 2484 1872 1581 1499 643 922 1242 1447 1544 1297 1108 1367 946 649 1234 1248 1638 1485 1320 1049 889 1403 2288 2083
0 0 0 0 0 13 33 175 198 222 134 258 752 943 1110 2066 2213 2755 2693 2611 2742 2542 2157 1781 2253 2319 1578 1270 1129 686 859 625 1187 1293 1331 1339 1479 1362 951 859 1460 1682 1360 1072 932 1121 1114 2146 1411
0 0 0 3 21 63 238 239 143 228 891 612 1143 1333 1495 2147 2545 2595 2485 2622 2475 1944 1354 1008 1513 2030 1306 946 698 685 892 832 751 887 1111 796 1081 1047 950 1040 1291 1599 1740 1320 1096 1434 1571 1831 1317
0 0 0 101 128 202 288 111 237 828 1131 1108 1144 1205 1708 1751 2574 1985 1261 2045 1776 1227 1315 892 1451 1315 890 960 575 786 673 455 669 880 745 634 777 947 947 882 854 972 1205 1443 1510 516 1263 724 683
0 0 0 0 37 172 287 130 857 924 885 1242 1216 1042 1621 1683 2437 1481 1573 1514 1140 1264 1086 939 1225 989 743 591 532 631 130 164 650 569 737 830 723 802 637 722 675 648 835 1014 1259 532 352 425 889
0 0 0 0 99 130 90 115 192 690 1164 1492 1273 1271 1691 1961 2190 1828 1389 1131 1099 1138 1111 1006 952 842 642 551 605 672 513 60 641 598 592 663 684 678 622 713 673 806 875 820 790 661 349 301 608
0 0 0 28 85 163 139 290 302 231 1286 1430 1617 1464 2101 2231 1991 1842 1225 1337 1036 912 1036 872 824 742 687 965 880 637 366 10 409 512 330 652 758 679 577 594 626 595 484 494 544 511 280 191 142
0 0 0 52 99 169 214 354 345 916 1042 1171 1881 1603 1941 2089 2187 1438 1381 1456 1075 1078 1097 860 424 629 607 847 681 543 323 108 128 748 307 609 408 396 288 309 283 315 253 80 90 108 92 78 90